Regional Weather Roundup
Issued by NWS

Home | Current Version | Previous Version | Text Only | Print | Product List | Glossary Off
Versions: 1 2 3 4 5 6 7 8 9 10 11 12 13 14 15 16 17 18 19 20 21 22 23 24 25 26 27 28 29 30 31 32 33 34 35 36 37 38 39 40 41 42 43 44 45 46 47 48 49 50

000
ASUS43 KFSD 201602
RWRSD

WEATHER ROUNDUP FOR SOUTH DAKOTA
NATIONAL WEATHER SERVICE SIOUX FALLS SD
1100 AM CDT MON OCT 20 2014

NOTE: "FAIR" INDICATES FEW OR NO CLOUDS BELOW 12,000 FEET WITH NO
SIGNIFICANT WEATHER AND/OR OBSTRUCTIONS TO VISIBILITY.


SDZ001>005-009-010-012>017-201700-
NORTHWEST AND NORTH CENTRAL SOUTH DAKOTA

CITY           SKY/WX    TMP DP  RH WIND       PRES   REMARKS
FAITH            N/A     59  41  51 S18G25    30.04F
MOBRIDGE       SUNNY     54  45  71 SE6       30.06F
$$

SDZ012>016-024>037-041>051-057-063-072>074-201700-
SOUTHWEST AND SOUTH CENTRAL SOUTH DAKOTA

CITY           SKY/WX    TMP DP  RH WIND       PRES   REMARKS
RAPID CTY ARPT SUNNY     56  43  61 SE10      30.04F
PIERRE         SUNNY     55  40  56 SE6       30.09S
CUSTER         SUNNY     61  38  42 VRB6      30.13S
ELLSWORTH AFB  SUNNY     59  43  55 S13       30.03
PHILIP         SUNNY     56  43  61 E3        30.07F
PINE RIDGE     SUNNY     60  41  49 S8        30.08
SPEARFISH      FAIR      64  41  42 CALM      30.04S
WINNER         FAIR      65  40  39 SE9       30.12S
$$

SDZ004>011-016>023-039-040-201700-
NORTHEAST SOUTH DAKOTA

CITY           SKY/WX    TMP DP  RH WIND       PRES   REMARKS
ABERDEEN       SUNNY     55  39  54 VRB3      30.10S
WATERTOWN      SUNNY     55  42  61 W3        30.09S
SISSETON         N/A     56  41  57 N7        30.07S
$$

SDZ017-020-022-023-036>040-048>070-201700-
SOUTHEAST SOUTH DAKOTA

CITY           SKY/WX    TMP DP  RH WIND       PRES   REMARKS
SIOUX FALLS    MOSUNNY   61  44  53 N5        30.09F
HURON          SUNNY     56  38  50 W3        30.11S
CHAMBERLAIN    SUNNY     57  40  54 CALM      30.12R
MITCHELL         N/A     58  41  53 MISG      30.12S
YANKTON        SUNNY     55  43  62 NW3       30.11F
$$

ABBREVIATIONS USED IN REMARKS
   TC - TEMPERATURE IN CELSIUS
  WCI - WIND CHILL INDEX
   HX - HEAT INDEX
  VSB - VISIBILITY




USA.gov is the U.S. government's official web portal to all federal, state and local government web resources and services.